Regional Weather Roundup
Issued by NWS Kansas City/Pleasant Hill, MO

Home | Current Version | Previous Version | Graphics & Text | Print | Product List | Glossary Off
Versions: 1 2 3 4 5 6 7 8 9 10 11 12 13 14 15 16 17 18 19 20 21 22 23 24 25 26 27 28 29 30 31 32 33 34 35 36 37 38 39 40 41 42 43 44 45 46 47 48 49 50

000
ASUS43 KEAX 221410
RWREAX

WEATHER ROUNDUP FOR EASTERN KANSAS AND NORTHWEST MISSOURI
NATIONAL WEATHER SERVICE KANSAS CITY/PLEASANT HILL MO
800 AM CST MON DEC 22 2014

KSZ040-057-103>105-MOZ028-029-037-043-221500-
...KANSAS CITY METROPOLITAN AREA...

CITY           SKY/WX    TMP DP  RH WIND       PRES   REMARKS
K.C. INTL      LGT RAIN  42  41  96 SE13      29.58F FOG
K.C. DOWNTOWN  CLOUDY    44  41  89 S6        29.60F
LEES SUMMIT    CLOUDY    42  40  92 SE8       29.61F
OLATHE - IXD   LGT RAIN  42  41  96 SE10      29.59F FOG
OLATHE - OJC   LGT RAIN  42  32  67 SE9       29.59F
LAWRENCE       CLOUDY    43  41  93 SE9       29.58F

$$

MOZ001>008-011>017-020>025-030>033-038>040-044>046-053-054-221500-
...NORTHERN AND CENTRAL MISSOURI...

CITY           SKY/WX    TMP DP  RH WIND       PRES   REMARKS
ST. JOSEPH     LGT RAIN  42  40  92 SE9       29.59F
MOSBY          DRIZZLE   41  41 100 SE6       29.61F
WARRENSBURG    CLOUDY    41  37  87 SE8       29.63F
WHITEMAN AFB   CLOUDY    42  38  86 SE8       29.63F
CLINTON        CLOUDY    43  39  87 SE6       29.64F
SEDALIA        CLOUDY    42  38  85 SE7       29.65S
WARSAW         NOT AVBL
MARSHALL       CLOUDY    43  39  87 E7        29.67F
CHILLICOTHE      N/A     41  37  86 SE6       29.65F
MOBERLY        CLOUDY    41  36  81 SE12      29.68F WCI  34
KIRKSVILLE     LGT RAIN  39  36  89 SE10      29.67F WCI  32

$$

MOZ041-047>049-056>058-063>065-088>090-097-221500-
...EASTERN AND SOUTHERN MISSOURI...

CITY           SKY/WX    TMP DP  RH WIND       PRES   REMARKS
ST. LOUIS INTL LGT RAIN  41  37  87 SE14      29.75F FOG     WCI  33
SPIRIT OF STL  LGT RAIN  40  37  89 SE9       29.73F FOG     WCI  34
COLUMBIA       CLOUDY    40  38  93 SE9       29.67F WCI  34
JEFFERSON CITY CLOUDY    41  39  93 E5        29.69F FOG
MEXICO         CLOUDY   N/A N/A N/A SE5       29.70F HAZE
HANNIBAL       MIX PCPN  39  36  87 E7        29.71S WCI  34
ROLLA          CLOUDY    42  40  92 S9        29.67S
LEBANON        CLOUDY    43  41  93 S8        29.67S
OSAGE BEACH    CLOUDY    43  37  81 S6        29.67F
SPRINGFIELD    LGT RAIN  43  41  93 SE14      29.64F
BRANSON        CLOUDY    41  41 100 E8        29.66F
NEVADA         CLOUDY    43  41  93 SE8       29.62  FOG
JOPLIN         CLOUDY    46  43  89 SE7       29.61F
WEST PLAINS    LGT RAIN  45  42  89 S9G18     29.71F

$$

IAZ060-094-KSZ022-034>040-054-083-096-NEZ052-066-093-221500-
...KANSAS...SOUTHEAST NEBRASKA AND IOWA...

CITY           SKY/WX    TMP DP  RH WIND       PRES   REMARKS
TOPEKA         LGT RAIN  45  43  93 SE7       29.57F FOG
MANHATTAN      LGT RAIN  44  43  96 S7        29.54S
EMPORIA        CLOUDY    43  43 100 S13       29.56S FOG
CHANUTE        CLOUDY    45  44  97 SE8       29.59F FOG
WICHITA        LGT RAIN  45  43  93 S3        29.56F VSB 1
OMAHA          LGT RAIN  42  41  96 SE14      29.55S WCI  35
LINCOLN        LGT RAIN  43  42  97 S7        29.52F FOG
FALLS CITY     RAIN      42  40  92 SE9       29.55F FOG
LAMONI         LGT RAIN  39  37  92 SE10      29.62F WCI  32
DES MOINES     CLOUDY    40  36  86 SE14      29.64F WCI  32

$$




USA.gov is the U.S. government's official web portal to all federal, state and local government web resources and services.